Kahului, HI

8:27 PM HST on November 19, 2017 (GMT -1000)
Kahului

Weather History for PHOG - May, 2012

Change the Weather History Date:

Sunday, May 6, 2012

  Actual Average Record
Temperature  
Mean Temperature 72 °F 75 °F  
Max Temperature 83 °F 84 °F 89 °F (1970)
Min Temperature 61 °F 66 °F 57 °F (1968)
Degree Days  
Heating Degree Days 0 0  
Month to date heating degree days 0 0  
Since 1 July heating degree days 0 0  
Cooling Degree Days 7 10  
Month to date cooling degree days 56 60  
Year to date cooling degree days 1054 986  
Growing Degree Days 22 (Base 50)    
Moisture  
Dew Point 63 °F    
Average Humidity 66    
Maximum Humidity 81    
Minimum Humidity 51    
Precipitation  
Precipitation 0.00 in 0.03 in 0.80 in (2011)
Month to date precipitation 0.17 0.21  
Year to date precipitation 3.20 8.97  
Snow  
Snow 0.00 in - - ()
Month to date snowfall 0.0  
Since 1 July snowfall 0.0  
Snow Depth 0.00 in    
Sea Level Pressure  
Sea Level Pressure 30.08 in    
Wind  
Wind Speed 13 mph (ENE)    
Max Wind Speed 32 mph    
Max Gust Speed 44 mph    
Visibility 10 miles    
Events Rain    
T = Trace of Precipitation, MM = Missing Value Source: NWS Daily Summary

Daily Weather History Graph

Daily Weather History Graph

Search for Another Location

Airport or City:

Trip Planner

Search our weather history database for the weather conditions in past years. The results will help you decide how hot, cold, wet, or windy it might be!

Date:

Astronomy

May. 06, 2012 Rise Set
Actual Time 5:52 AM HST 6:52 PM HST
Civil Twilight 5:28 AM HST 7:16 PM HST
Nautical Twilight 5:00 AM HST 7:43 PM HST
Astronomical Twilight 4:32 AM HST 8:12 PM HST
Moon 8:00 PM HST (5/6) 6:19 AM HST (5/6)
Length of Visible Light 13h 47m
Length of Day
13h 00m
Full, 99% of the Moon is Illuminated
May 6
Full
May 12
Last Quarter
May 20
New
May 28
First Quarter
Jun 4
Full

Hourly Weather History & Observations

Time (HST) Temp. Heat Index Dew Point Humidity Pressure Visibility Wind Dir Wind Speed Gust Speed Precip Events Conditions
12:54 AM 69.1 °F - 59.0 °F 70% 30.09 in 10.0 mi ENE 10.4 mph - N/A   Clear
1:54 AM 70.0 °F - 62.1 °F 76% 30.08 in 10.0 mi ENE 5.8 mph - N/A   Clear
2:54 AM 63.0 °F - 55.9 °F 78% 30.07 in 10.0 mi Calm Calm - N/A   Clear
3:54 AM 66.9 °F - 60.1 °F 79% 30.06 in 10.0 mi East 4.6 mph - N/A   Mostly Cloudy
4:54 AM 63.0 °F - 55.9 °F 78% 30.07 in 10.0 mi South 3.5 mph - N/A   Clear
5:54 AM 68.0 °F - 60.1 °F 76% 30.08 in 10.0 mi ESE 3.5 mph - N/A   Partly Cloudy
6:54 AM 71.1 °F - 63.0 °F 75% 30.09 in 10.0 mi East 6.9 mph - N/A   Partly Cloudy
7:54 AM 75.0 °F - 64.0 °F 69% 30.11 in 10.0 mi NE 17.3 mph - N/A   Scattered Clouds
8:54 AM 77.0 °F - 62.1 °F 60% 30.12 in 10.0 mi ENE 16.1 mph 24.2 mph N/A   Scattered Clouds
9:54 AM 79.0 °F - 63.0 °F 58% 30.11 in 10.0 mi ENE 18.4 mph 29.9 mph N/A   Scattered Clouds
10:54 AM 80.1 °F 81.5 °F 63.0 °F 56% 30.10 in 10.0 mi ENE 20.7 mph 28.8 mph N/A   Scattered Clouds
11:54 AM 82.9 °F 83.7 °F 62.1 °F 49% 30.07 in 10.0 mi ENE 20.7 mph 31.1 mph N/A   Scattered Clouds
12:54 PM 80.1 °F 81.5 °F 63.0 °F 56% 30.06 in 10.0 mi NE 28.8 mph 36.8 mph N/A   Scattered Clouds
1:54 PM 82.0 °F 83.0 °F 62.1 °F 51% 30.04 in 10.0 mi ENE 23.0 mph 35.7 mph N/A   Scattered Clouds
2:54 PM 82.0 °F 83.1 °F 63.0 °F 52% 30.02 in 10.0 mi ENE 27.6 mph 39.1 mph N/A   Scattered Clouds
3:54 PM 78.1 °F - 64.0 °F 62% 30.03 in 10.0 mi NE 27.6 mph 40.3 mph N/A   Scattered Clouds
4:54 PM 78.1 °F - 64.9 °F 64% 30.03 in 10.0 mi NE 25.3 mph 34.5 mph N/A   Scattered Clouds
5:54 PM 73.9 °F - 63.0 °F 68% 30.06 in 10.0 mi ENE 19.6 mph 32.2 mph N/A   Partly Cloudy
6:54 PM 72.0 °F - 64.0 °F 76% 30.08 in 10.0 mi NE 23.0 mph 35.7 mph N/A   Scattered Clouds
7:54 PM 71.1 °F - 64.9 °F 81% 30.10 in 9.0 mi NE 18.4 mph - 0.00 in Rain Light Rain
8:54 PM 70.0 °F - 64.9 °F 84% 30.12 in 10.0 mi NE 15.0 mph - 0.00 in   Mostly Cloudy
9:54 PM 71.1 °F - 64.9 °F 81% 30.14 in 10.0 mi NE 11.5 mph 21.9 mph N/A   Mostly Cloudy
10:54 PM 70.0 °F - 64.0 °F 81% 30.14 in 10.0 mi NE 17.3 mph - N/A   Mostly Cloudy
11:54 PM 71.1 °F - 64.9 °F 81% 30.13 in 10.0 mi NE 17.3 mph - N/A   Scattered Clouds